Torna al catalogo

PROGRESS MS-34

AttivoScienzaVLEO
NORAD 68837·PAYLOAD·🇷🇺 Russia

Lanciato Apr 25, 2026 da Baikonur Cosmodrome

Loading…

Prossimi Passaggi (prossime 24 ore)

TLE

AggiornatoSource: Space-Track

Epoca: Sep 14, 2026, 08:04 UTC

1 68837U 26093A   26257.33674855  .00005039  00000-0  99198-4 0  9992
2 68837  51.6309 218.8706 0004930 140.1239 220.0112 15.49109872586706

Traccia PROGRESS MS-34 in tempo reale con AllMySat

Download on the App Store